GW4079 Weather Reports


Display with metric or nautical units.
time (UTC)temp
F
wind
direction
speed
MPH
gust
MPH
rain 1hr
in
rain 24hr
in
rain mn
in
humidity
%
barometer
mb
20260831060044 55 263 10.0 17.0 0.00 0.01 0.00 58 1013.7
20260831054542 56 260 14.0 19.0 0.00 0.01 0.01 56 1013.6
20260831053046 55 274 13.0 18.0 0.00 0.01 0.01 57 1013.4
20260831051544 54 277 10.0 14.0 0.00 0.01 0.01 60 1013.4
20260831050107 55 290 12.0 18.0 0.00 0.01 0.01 57 1013.6
20260831044601 57 298 17.0 25.0 0.00 0.01 0.01 50 1013.4
20260831043045 58 279 19.0 27.0 0.00 0.01 0.01 48 1013.0
20260831041602 59 283 19.0 27.0 0.00 0.01 0.01 47 1013.1
20260831040049 59 269 18.0 29.0 0.00 0.01 0.01 46 1013.1
20260831034545 59 275 19.0 26.0 0.00 0.01 0.01 46 1013.0
20260831033042 59 264 15.0 24.0 0.00 0.01 0.01 47 1013.2
20260831031550 59 294 16.0 22.0 0.00 0.01 0.01 47 1013.1
20260831030055 59 277 15.0 21.0 0.00 0.01 0.01 46 1012.8
20260831024608 59 269 14.0 20.0 0.00 0.01 0.01 46 1012.9
20260831023044 60 273 14.0 22.0 0.00 0.01 0.01 46 1012.7
20260831021546 60 252 17.0 25.0 0.00 0.01 0.01 45 1012.3
20260831020107 61 280 21.0 31.0 0.00 0.01 0.01 43 1012.0
20260831014601 62 277 20.0 32.0 0.00 0.01 0.01 43 1012.0
20260831013045 62 269 26.0 34.0 0.00 0.01 0.01 42 1011.9
20260831011546 62 284 19.0 28.0 0.00 0.01 0.01 42 1012.1
20260831010050 62 286 21.0 29.0 0.00 0.01 0.01 42 1012.0
20260831004547 64 275 22.0 32.0 0.00 0.01 0.01 39 1012.1
20260831003044 65 283 23.0 35.0 0.00 0.01 0.01 39 1012.0
20260831001555 64 282 28.0 35.0 0.00 0.01 0.01 38 1011.7
20260831000049 64 274 27.0 36.0 0.00 0.01 0.01 38 1011.6
20260830234607 65 292 24.0 33.0 0.00 0.01 0.01 37 1011.7
20260830233054 66 265 26.0 34.0 0.00 0.01 0.01 35 1011.8
20260830231547 66 279 24.0 32.0 0.00 0.01 0.01 38 1011.5
20260830230046 65 256 24.0 31.0 0.00 0.01 0.01 40 1012.0
20260830224549 65 234 19.0 29.0 0.00 0.01 0.01 39 1012.0
20260830223056 64 254 23.0 29.0 0.00 0.01 0.01 39 1012.3
20260830221547 64 254 21.0 32.0 0.00 0.01 0.01 39 1012.3
20260830220059 64 236 26.0 34.0 0.00 0.01 0.01 38 1012.4
20260830214558 64 240 24.0 30.0 0.00 0.01 0.01 38 1012.4
20260830213048 64 259 23.0 38.0 0.00 0.01 0.01 40 1012.6
20260830211606 65 290 24.0 34.0 0.00 0.01 0.01 38 1012.4
20260830210055 64 252 18.0 33.0 0.00 0.01 0.01 38 1012.6
20260830204550 65 242 32.0 39.0 0.00 0.01 0.01 38 1012.0
20260830203047 65 266 31.0 41.0 0.00 0.01 0.01 38 1012.0
20260830201607 64 274 24.0 31.0 0.00 0.01 0.01 38 1012.4
20260830200054 65 263 16.0 23.0 0.00 0.01 0.01 36 1012.3
20260830194551 65 283 19.0 31.0 0.00 0.01 0.01 37 1012.1
20260830193057 65 282 16.0 29.0 0.00 0.01 0.01 35 1012.4
20260830191554 66 280 15.0 23.0 0.00 0.01 0.01 35 1012.5
20260830190051 67 279 14.0 29.0 0.00 0.01 0.01 31 1012.3
20260830184545 66 227 18.0 24.0 0.00 0.01 0.01 33 1012.4
20260830183059 66 260 14.0 25.0 0.00 0.01 0.01 31 1012.6
20260830181604 65 257 12.0 17.0 0.00 0.01 0.01 35 1012.8
20260830180110 65 258 12.0 20.0 0.00 0.01 0.01 40 1013.0
20260830174602 63 228 9.0 21.0 0.00 0.01 0.01 45 1013.0
20260830173109 62 218 8.0 14.0 0.00 0.01 0.01 46 1013.0
20260830171550 62 264 6.0 13.0 0.00 0.01 0.01 49 1013.1
20260830170056 61 221 11.0 15.0 0.00 0.01 0.01 58 1013.2
20260830164558 59 239 8.0 12.0 0.00 0.01 0.01 66 1013.4
20260830163104 58 216 6.0 10.0 0.00 0.01 0.01 70 1013.4
20260830161601 59 238 4.0 8.0 0.00 0.01 0.01 68 1013.4
20260830154558 59 15 1.0 4.0 0.00 0.01 0.01 61 1013.4
20260830153054 60 15 0.0 0.0 0.00 0.01 0.01 57 1013.4
20260830151624 59 15 0.0 0.0 0.00 0.01 0.01 63 1013.6
20260830150104 58 15 1.0 3.0 0.00 0.01 0.01 66 1013.7
20260830144605 58 15 1.0 6.0 0.00 0.01 0.01 71 1013.6
20260830143105 58 61 1.0 4.0 0.00 0.01 0.01 79 1013.8
20260830141628 56 61 0.0 3.0 0.00 0.01 0.01 86 1013.5
20260830134625 55 186 1.0 3.0 0.00 0.01 0.01 87 1014.0
20260830133127 55 186 2.0 4.0 0.00 0.01 0.01 87 1014.2
20260830131625 55 186 0.0 0.0 0.00 0.01 0.01 87 1013.9
20260830130100 55 186 0.0 5.0 0.00 0.01 0.01 86 1013.6
20260830124600 55 144 1.0 9.0 0.00 0.01 0.01 85 1013.2
20260830123102 55 286 0.0 5.0 0.00 0.01 0.01 82 1013.1
20260830121600 55 310 6.0 9.0 0.00 0.01 0.01 82 1013.1
20260830120058 55 294 9.0 13.0 0.00 0.01 0.01 82 1013.0
20260830114600 56 281 6.0 12.0 0.00 0.01 0.01 82 1013.1
20260830113100 56 302 10.0 14.0 0.00 0.01 0.01 81 1013.1
20260830111602 56 288 11.0 14.0 0.00 0.01 0.01 82 1012.9
20260830110123 56 293 5.0 10.0 0.00 0.01 0.01 81 1012.8
20260830104601 56 239 0.0 0.0 0.00 0.01 0.01 81 1012.2
20260830103058 55 239 0.0 3.0 0.00 0.01 0.01 81 1012.3
20260830101609 56 253 4.0 7.0 0.00 0.01 0.01 82 1012.4
20260830100108 55 269 3.0 7.0 0.00 0.01 0.01 82 1012.7
20260830094616 56 253 1.0 5.0 0.00 0.01 0.01 83 1012.4
20260830093105 56 273 8.0 11.0 0.00 0.01 0.01 81 1012.8
20260830091626 55 292 11.0 15.0 0.00 0.01 0.01 83 1012.7
20260830090050 56 287 13.0 19.0 0.00 0.01 0.01 82 1012.8
20260830084918 56 298 16.0 21.0 0.01 0.01 0.01 81 1013.0
20260830084643 56 298 16.0 21.0 0.01 0.01 0.01 81 1013.0
20260830083101 56 292 16.0 23.0 0.01 0.01 0.01 83 1013.0
20260830081552 56 275 19.0 29.0 0.01 0.01 0.01 87 1013.1
20260830080054 57 282 21.0 28.0 0.01 0.01 0.01 86 1013.3
20260830074855 58 273 14.0 18.0 0.00 0.00 0.00 83 1013.1
20260830074642 58 273 14.0 18.0 0.00 0.00 0.00 83 1013.1
20260830073114 58 268 10.0 13.0 0.00 0.00 0.00 81 1013.1
20260830071606 58 262 6.0 9.0 0.00 0.00 0.00 83 1012.7
20260830070127 58 223 2.0 4.0 0.00 0.00 0.00 82 1012.0
20260830064643 58 223 2.0 5.0 0.00 0.00 0.00 80 1012.0
20260830063103 58 225 3.0 6.0 0.00 0.00 0.00 77 1012.3
20260830061638 58 228 4.0 6.0 0.00 0.00 0.00 74 1012.3